Torna al catalogo

CZ-6A DEB

AttivoPO
NORAD 54425·DEBRIS·🇨🇳 China

Lanciato Nov 11, 2022 da Taiyuan Satellite Launch Center

Loading…

Prossimi Passaggi (prossime 24 ore)

TLE

AggiornatoSource: Space-Track

Epoca: Sep 14, 2026, 06:27 UTC

1 54425U 22151EZ  26257.26875918  .00001297  00000-0  24775-3 0  9996
2 54425  98.8620  14.1544 0121114 306.5900  52.4204 14.61400907203719

Traccia CZ-6A DEB in tempo reale con AllMySat

Download on the App Store